Location: Kaltenbach
(49.2000°N, 7.7500°E)
Time: 09:14:05
(UTC+00:00)

ATLAS 5 CENTAUR R/B - Pass Details

Date: 24 January 2020
Orbit: 283 x 14333 km, 60.7° (Epoch: 16 February)

Event Time Altitude Azimuth Distance (km) Brightness Sun altitude
Rises 17:13:42 0° 314° (NW) 2,403 5.5 -10.1°
Reaches altitude 10° 17:15:14 10° 327° (NNW) 1,830 4.7 -10.4°
Maximum altitude 17:18:41 32° 34° (NE) 1,553 3.7 -10.9°
Enters shadow 17:27:27 11° 94° (E) 4,870 6.0 -12.3°
